SCP
1 1 1 1 1 1 1 1 1 1 1 1 1 1 0 0 0 0 0 0 0 0 0 0 0 0 0 0 0 0 0 0 0 0 0 0 0 0 0 0 0 0 0
1 1 1 1 1 1 1 1 1 1 1 1 1 1 0 0 0 0 0 0 0 0 0 0 0 0 0 0 0 0 0 0 0 0 0 0 0 0 0 0 0 0 0
1 1 1 1 1 1 1 1 1 1 1 1 1 0 0 0 0 0 0 0 0 0 0 0 0 0 0 0 0 0 0 0 0 0 0 0 0 0 0 0 0 0 0
1 1 1 1 1 1 1 1 1 1 1 1 0 0 0 0 0 0 0 0 0 0 0 0 0 0 0 0 0 0 0 0 0 0 0 0 0 0 0 0 0 0 0
1 1 1 1 1 1 1 1 1 1 1 0 0 0 0 0 0 0 0 0 0 0 0 0 0 0 0 0 0 0 0 0 0 0 0 0 0 0 0 0 0 0 0
1 1 1 1 1 1 1 1 1 1 1 1 0 0 0 0 0 0 0 0 0 0 0 0 0 0 0 0 0 0 0 0 0 0 0 0 0 0 0 0 0 0 0
1 1 1 1 1 1 1 1 1 1 1 1 0 0 0 0 0 0 0 0 0 0 0 0 0 0 0 0 0 0 0 0 0 0 0 0 0 0 0 0 0 0 0
1 1 1 1 1 1 1 1 1 1 1 1 0 1 1 1 0 0 0 0 0 0 0 0 0 0 0 0 0 0 0 0 0 0 0 0 0 0 0 0 0 0 0
1 1 1 1 1 1 1 1 1 1 1 1 1 1 1 1 0 0 0 0 0 0 0 0 0 0 0 0 0 0 0 0 0 0 0 0 0 0 0 0 0 0 0
1 1 1 1 1 1 1 1 1 1 1 1 1 1 1 0 0 0 0 0 0 0 0 0 0 0 0 0 0 0 0 0 0 0 0 0 0 0 0 0 0 0 0
1 1 1 1 1 1 1 1 1 1 1 1 1 1 1 0 0 0 0 0 0 0 0 0 0 0 0 0 0 0 0 0 0 0 0 0 0 0 0 0 0 0 0
1 1 1 1 1 1 1 1 1 1 1 1 1 1 1 0 0 0 0 0 0 0 0 0 0 0 0 0 0 0 0 0 0 0 0 0 0 0 0 0 0 0 0
1 1 1 1 1 1 1 1 1 1 1 1 1 1 1 1 0 0 0 0 0 0 0 0 0 0 0 0 0 0 0 0 0 0 0 0 0 0 0 0 0 0 0
1 1 1 2 2 2 2 1 1 1 1 1 1 1 1 1 1 0 0 0 0 0 0 0 0 0 0 0 0 0 0 0 0 0 0 0 0 0 0 0 0 0 0
2 2 2 2 2 2 2 2 2 1 1 1 1 1 1 1 1 1 1 1 0 0 0 0 0 0 0 0 0 0 0 0 0 0 0 0 0 0 0 0 0 0 0
3 3 3 2 2 2 3 3 3 2 2 1 1 1 1 1 1 1 1 1 0 0 0 0 0 0 0 0 0 0 0 0 0 0 0 0 0 0 0 0 0 0 0
3 3 3 3 2 3 3 3 3 3 2 1 1 1 1 1 1 1 1 1 0 0 0 0 0 0 0 0 0 0 0 0 0 0 0 0 0 0 1 1 1 0 0
3 3 3 3 3 3 2 3 4 3 2 1 2 2 1 1 1 1 1 1 1 0 0 0 0 0 0 0 0 0 0 0 0 0 0 0 0 0 1 1 1 0 0
2 3 3 3 3 3 3 3 3 3 3 2 2 2 2 1 1 1 1 1 1 1 0 0 0 0 0 0 0 0 0 0 0 0 0 0 0 0 1 1 0 0 0
2 2 3 3 3 3 3 3 3 3 3 2 2 2 2 1 1 1 1 1 1 1 1 0 0 0 0 0 0 0 0 0 0 0 0 0 0 0 0 0 0 0 0
3 3 3 3 3 3 3 3 3 3 3 3 2 2 2 1 1 1 1 2 2 1 1 1 1 1 0 0 0 0 0 0 0 0 0 0 0 0 0 0 0 0 0
3 3 4 4 3 3 3 3 3 3 3 2 2 1 1 1 1 1 1 2 2 2 1 1 1 1 1 0 0 0 0 0 0 0 0 0 0 0 0 0 0 0 0
3 3 4 4 4 3 3 3 3 3 2 2 2 1 1 1 1 1 2 2 2 2 2 1 1 1 1 0 0 0 0 0 0 0 0 0 0 0 0 0 0 0 0
3 3 3 4 4 3 3 3 3 2 2 2 2 2 2 2 1 1 2 2 2 2 2 1 1 1 1 1 0 0 0 0 0 0 0 0 0 0 0 0 0 0 0
2 2 3 3 3 3 3 3 2 2 2 2 2 2 2 2 2 1 2 2 2 2 2 1 1 1 1 1 1 0 0 0 0 0 0 0 0 0 0 0 0 0 0
2 2 2 3 3 3 3 3 2 2 2 2 2 2 2 2 2 1 1 2 2 2 2 1 1 1 1 1 1 1 1 0 0 0 0 0 0 0 0 0 1 1 1
Wind_Speed
12 15 14 13 13 14 15 15 15 15 15 15 16 16 16 16 16 16 16 16 15 15 15 15 15 15 15 14 14 14 14 14 14 15 15 15 14 13 12 12 12 14 15
16 17 15 13 14 14 15 15 15 15 15 15 15 15 15 15 15 15 15 15 15 15 15 15 15 15 14 14 14 14 14 14 14 14 15 15 14 13 11 11 12 13 14
17 17 16 13 14 14 14 15 15 15 15 15 15 15 14 14 14 14 14 14 14 14 14 14 14 14 14 14 14 14 13 13 12 10 9 12 14 13 13 14 15 14 14
17 16 15 16 14 14 14 14 14 14 14 14 14 14 14 14 14 14 14 14 14 14 14 14 14 14 14 13 13 13 13 12 9 6 7 10 12 13 13 13 14 13 13
16 16 17 16 15 14 14 14 14 14 14 14 14 13 13 13 13 13 13 13 13 13 13 13 13 13 13 13 13 12 12 9 5 5 10 10 11 12 13 13 13 13 12
16 16 18 15 15 14 14 13 13 13 13 13 13 13 13 13 13 13 13 13 13 13 13 13 12 12 12 12 12 12 10 6 5 9 9 9 11 11 12 13 13 12 12
16 16 18 15 15 14 14 13 13 13 13 13 13 12 12 12 12 13 13 13 13 13 12 12 11 11 11 11 11 10 8 2 6 9 8 10 11 11 12 12 12 12 12
16 16 17 15 14 14 13 13 13 13 13 12 12 12 12 12 12 12 12 12 12 12 11 11 10 10 10 10 10 9 6 3 8 9 10 11 11 10 11 11 11 11 11
15 15 15 15 14 14 13 13 12 12 12 12 12 12 12 12 12 12 12 11 11 11 11 10 10 10 10 10 9 8 5 2 5 7 9 9 10 10 11 11 11 11 10
13 13 14 13 13 13 13 13 12 12 12 12 12 12 12 12 11 11 11 11 11 10 10 10 9 9 9 9 9 8 5 4 7 8 7 10 10 10 10 10 10 10 10
13 12 12 13 12 12 12 13 12 12 11 11 11 11 10 9 10 9 11 10 10 10 9 9 8 8 8 9 8 7 6 3 7 6 7 11 9 9 9 9 9 9 9
15 14 11 12 12 11 9 10 8 9 9 7 8 9 6 5 5 8 12 9 9 9 9 8 7 7 6 7 8 8 3 5 5 6 8 9 8 8 8 8 8 8 8
15 13 12 11 10 10 8 8 5 5 6 7 8 7 5 5 5 6 6 7 7 8 7 8 7 3 3 3 2 3 3 3 3 5 9 8 7 7 8 7 7 7 7
15 14 13 12 10 9 8 7 6 6 5 6 7 7 6 4 4 4 3 4 5 3 3 3 3 3 3 3 3 3 3 2 3 5 8 7 6 6 7 7 7 7 6
15 14 13 12 11 9 7 6 6 6 6 6 6 5 5 4 4 4 3 2 3 4 4 3 3 4 3 3 2 3 3 4 4 4 7 7 6 6 6 6 6 6 6
16 15 13 13 12 10 8 7 6 6 5 6 6 7 6 4 4 4 4 3 3 3 2 2 4 3 2 2 2 3 2 4 4 4 6 8 7 6 5 5 5 5 5
15 15 14 13 12 11 9 9 7 6 7 6 6 6 6 5 5 4 4 4 3 3 3 2 3 2 3 3 3 3 3 3 4 4 4 4 7 8 6 5 4 4 5
15 14 14 12 13 11 9 8 6 6 6 6 6 6 7 5 5 4 4 4 4 4 4 3 3 3 2 2 3 2 3 3 4 4 4 3 3 5 8 6 4 4 4
15 15 15 13 13 12 10 8 7 6 6 5 5 6 7 7 6 5 3 3 4 4 3 4 3 2 2 2 3 3 2 3 3 3 4 4 3 3 4 8 6 4 4
14 14 14 14 13 12 10 8 6 7 7 6 6 6 7 6 6 5 4 4 5 4 3 2 2 2 2 2 2 3 2 2 3 3 4 4 4 4 4 5 6 6 5
14 15 15 15 14 11 9 9 8 8 7 6 6 7 8 7 7 5 4 5 5 4 4 4 4 4 3 2 2 3 3 3 3 3 3 3 4 4 3 3 3 3 5
16 15 15 15 15 13 10 8 7 7 7 6 6 7 8 8 7 7 5 5 5 4 4 4 4 3 3 3 3 3 3 4 4 4 4 4 3 4 4 5 3 3 2
16 16 14 15 14 14 12 8 7 6 6 7 8 7 9 9 8 7 7 5 5 6 5 5 5 6 3 3 3 3 2 2 3 4 4 3 3 3 4 4 5 4 4
16 15 15 15 14 14 13 12 12 10 9 9 8 8 8 9 9 8 7 6 5 5 4 6 6 4 4 4 3 3 3 3 2 3 5 5 5 5 4 4 4 5 4
15 14 14 14 14 14 14 14 13 11 9 7 8 9 9 8 9 9 8 7 6 5 5 4 4 5 4 4 4 4 3 3 4 3 2 3 4 5 5 5 4 4 4
14 14 13 14 14 14 14 14 14 13 11 10 10 9 9 7 7 9 9 7 7 5 5 5 5 6 5 4 4 4 4 4 4 3 3 3 3 3 4 3 4 4 4
Wind_Direction
139 128 130 127 123 121 118 115 113 112 111 110 109 108 107 106 105 104 105 106 106 105 103 102 102 101 100 100 99 98 98 98 98 99 98 96 96 99 103 111 117 105 107
136 130 133 130 126 123 120 117 115 114 113 112 111 110 109 108 106 105 104 104 104 104 103 102 101 100 99 100 99 99 99 99 101 104 109 104 96 97 95 87 82 101 109
135 133 139 133 128 126 123 121 119 117 116 114 112 111 110 108 107 106 105 104 105 105 104 103 103 102 101 100 100 100 100 100 105 119 137 110 101 95 95 94 97 106 107
136 139 138 133 131 128 125 123 121 120 118 116 114 112 111 109 107 105 104 103 104 105 105 104 104 103 102 100 100 100 99 101 114 156 112 99 101 99 101 102 103 105 107
138 136 131 139 135 132 129 126 124 122 121 120 118 115 112 110 108 106 105 105 105 106 106 105 103 103 103 103 102 101 101 105 137 117 90 94 96 103 105 105 104 105 107
142 138 134 143 139 136 133 130 129 125 123 122 120 117 115 112 110 108 107 106 106 106 105 105 104 105 106 107 106 105 108 134 162 94 96 99 99 104 106 106 105 105 105
143 137 138 144 141 139 137 134 132 128 126 123 121 119 116 114 112 110 109 108 107 106 106 105 106 107 108 109 109 109 114 160 95 96 96 90 93 103 105 105 105 106 105
144 139 136 144 142 141 139 137 135 132 129 126 124 121 116 113 111 112 110 109 109 108 107 106 105 107 107 109 112 117 128 209 106 99 98 95 97 104 105 105 105 107 105
147 141 145 149 148 145 140 139 137 134 132 131 127 122 118 115 114 113 110 111 111 110 109 107 105 107 108 111 113 117 115 312 97 101 101 97 103 104 105 106 107 108 109
150 147 150 150 151 154 148 143 139 136 134 131 129 127 125 124 122 124 125 113 114 114 111 107 104 107 111 114 116 122 148 211 104 105 99 101 109 110 109 109 109 109 109
157 155 155 152 158 160 151 144 147 143 138 141 136 137 154 148 136 145 110 118 119 117 113 107 105 112 126 125 126 148 191 128 104 96 91 102 116 115 114 112 111 110 109
166 164 163 159 162 162 151 149 157 156 151 157 142 151 150 128 125 116 116 123 122 123 122 114 120 159 188 139 145 189 154 111 112 108 100 115 121 119 118 117 117 115 112
169 168 167 164 168 164 156 158 158 150 148 151 146 149 139 144 141 136 139 143 146 157 151 144 175 160 118 92 121 126 103 110 106 105 110 126 128 127 125 124 124 122 120
172 173 169 166 169 170 163 157 162 160 158 154 149 163 152 148 147 135 147 147 154 150 139 151 134 109 98 115 105 102 120 117 102 103 116 132 137 135 132 132 134 133 130
175 176 171 171 170 171 167 173 167 167 162 151 155 158 159 158 156 144 138 153 159 145 157 154 133 121 129 136 128 119 118 103 112 117 119 134 143 142 139 139 143 145 145
178 177 173 177 173 173 174 176 168 169 163 163 164 158 175 165 154 155 161 171 160 160 138 155 132 147 147 120 131 124 135 124 120 132 133 141 147 147 150 154 154 156 159
180 176 176 178 176 178 180 181 177 175 173 173 159 162 176 173 161 175 167 182 161 155 152 172 141 153 163 153 136 140 133 125 122 127 132 139 150 152 152 153 155 159 164
180 177 178 182 180 182 184 187 183 182 175 177 169 167 178 175 178 187 183 177 163 180 178 168 187 175 154 155 148 154 127 134 135 152 149 149 145 145 153 149 155 162 170
182 179 180 185 182 183 185 186 189 179 185 186 181 176 174 182 184 200 190 160 191 193 191 199 160 194 172 169 162 153 148 145 149 160 148 151 145 154 147 148 161 167 180
184 183 183 184 183 182 183 186 188 187 190 193 188 181 179 182 188 202 184 178 207 196 195 194 165 192 195 194 197 137 156 148 177 157 183 162 161 173 170 153 169 169 174
186 186 186 186 183 183 188 191 188 187 190 191 191 182 187 188 183 205 197 178 214 201 205 200 206 189 193 187 194 178 173 175 173 172 191 181 169 172 168 171 190 168 164
189 190 189 190 187 189 192 195 193 189 192 191 192 184 195 192 190 196 207 200 199 197 204 211 213 223 195 191 226 212 192 174 191 181 177 189 185 182 185 187 176 198 227
191 191 192 192 191 194 192 190 187 186 195 190 192 191 199 197 197 206 198 212 200 212 199 211 209 216 215 199 230 260 247 197 169 168 194 190 192 204 205 183 193 191 213
191 190 192 192 193 193 192 196 192 196 197 197 194 189 192 198 200 201 204 205 210 218 199 213 203 214 217 215 197 242 295 344 272 175 186 183 195 208 218 220 199 192 204
189 188 189 190 194 195 197 199 201 203 201 195 194 190 196 195 202 204 202 201 206 216 212 225 197 224 220 225 222 214 217 219 248 259 213 191 197 203 205 214 218 211 204
184 185 185 188 193 196 200 202 205 203 200 197 197 193 197 195 200 202 204 202 206 212 207 212 213 214 235 234 243 237 234 236 237 243 244 225 212 203 205 216 223 217 218